Regional Weather Roundup
Issued by NWS Portland, ME

Home | Current Version | Previous Version | Text Only | Print | Product List | Glossary On
Versions: 1 2 3 4 5 6 7 8 9 10 11 12 13 14 15 16 17 18 19 20 21 22 23 24 25 26 27 28 29 30 31 32 33 34 35 36 37 38 39 40 41 42 43 44 45 46 47 48 49 50
000
ASUS41 KGYX 301210
RWRGYX
WEATHER ROUNDUP FOR MAINE AND NEW HAMPSHIRE
NATIONAL WEATHER SERVICE GRAY ME
800 AM EDT FRI SEP 30 2016

MEZ002-005-006-010-012-015-018-020-021-024-026-027-029-301300-
MAINE

CITY           SKY/WX    TMP DP  RH WIND       PRES   REMARKS
PORTLAND       PTSUNNY   48  41  76 N6        30.54R
6HR MIN TEMP:  44; 6HR MAX TEMP:  48;

SANFORD        CLOUDY    46  43  89 N7        30.53R
BAR HARBOR     MOSUNNY  N/A N/A N/A N5        30.56S
WISCASSET      PTSUNNY   45  40  82 CALM      30.56R
6HR MIN TEMP:  41; 6HR MAX TEMP:  45;

ROCKLAND       CLOUDY    51  47  86 NE7       30.53S
FRYEBURG       PTSUNNY   42  41  96 W3        30.55S
6HR MIN TEMP:  35; 6HR MAX TEMP:  42;

LEWISTONAUBURN MOSUNNY   41  39  93 CALM      30.55S
AUGUSTA        MOSUNNY   43  39  86 N6        30.56R
6HR MIN TEMP:  41; 6HR MAX TEMP:  43;

WATERVILLE     MOSUNNY   41  38  89 N7        30.54R
BANGOR         PTSUNNY   40  38  93 N5        30.57S
6HR MIN TEMP:  34; 6HR MAX TEMP:  40;

GREENVILLE       N/A     44  43  96 CALM      30.54R
6HR MIN TEMP:  38; 6HR MAX TEMP:  44;

MILLINOCKET    CLOUDY    36  34  92 CALM      30.58R
6HR MIN TEMP:  31; 6HR MAX TEMP:  36;

HOULTON        CLOUDY    33  33 100 CALM      30.57R
6HR MIN TEMP:  28; 6HR MAX TEMP:  33;

PRESQUE ISLE   CLOUDY    32  32 100 CALM      30.59R FOG
6HR MIN TEMP:  27; 6HR MAX TEMP:  32;

FRENCHVILLE    SUNNY     35  32  88 N5        30.56R
6HR MIN TEMP:  30; 6HR MAX TEMP:  37;

CARIBOU        CLOUDY    35  34  96 CALM      30.56S
6HR MIN TEMP:  31; 6HR MAX TEMP:  38;

$$

NHZ002-005-008-009-011-012-014-301300-
NEW HAMPSHIRE

CITY           SKY/WX    TMP DP  RH WIND       PRES   REMARKS
PORTSMOUTH     CLOUDY    49  44  83 N7        30.49S
ROCHESTER      PTSUNNY   46  41  82 N7        30.51S
6HR MIN TEMP:  43; 6HR MAX TEMP:  46;

NASHUA         CLOUDY    50  45  83 N6        30.50S
MANCHESTER     CLOUDY    49  42  77 N8        30.49S
6HR MIN TEMP:  47; 6HR MAX TEMP:  49;

CONCORD        MOSUNNY   47  41  80 N6        30.51S
6HR MIN TEMP:  43; 6HR MAX TEMP:  47;

LACONIA        MOSUNNY   49  42  77 E7        30.52S
PLYMOUTH       FAIR      41  41  99 CALM      30.52F
BERLIN         FOG       35  33  92 CALM      30.54S VSB<1/4
6HR MIN TEMP:  33; 6HR MAX TEMP:  37;

WHITEFIELD     MOSUNNY   40  36  86 CALM      30.51S
6HR MIN TEMP:  38; 6HR MAX TEMP:  50;

JAFFREY        CLOUDY    48  43  82 CALM      30.48S
6HR MIN TEMP:  46; 6HR MAX TEMP:  48;

KEENE          CLOUDY    49  45  86 VRB3      30.49S
LEBANON        CLOUDY    45  43  93 CALM      30.51S
6HR MIN TEMP:  40; 6HR MAX TEMP:  45;

MT WASHINGTON  MOSUNNY   48   0  13 SE10        N/A
6HR MIN TEMP:  44; 6HR MAX TEMP:  50;

$$

VTZ005-007-008-301300-
VERMONT

CITY           SKY/WX    TMP DP  RH WIND       PRES   REMARKS
ST JOHNSBURY     N/A     41  41 100 MISG      30.51S
MONTPELIER     MOSUNNY   43  42  97 CALM      30.54S
BURLINGTON     PTSUNNY   54  39  57 SE6       30.49R
$$

MAZ007-012-024-CTZ003-RIZ002-NYZ038-NYZ072-301300-
SOUTHERN NEW ENGLAND AND NY

CITY           SKY/WX    TMP DP  RH WIND       PRES   REMARKS
BOSTON         CLOUDY    58  51  78 NE18      30.46R
WORCESTER      CLOUDY    50  46  86 NE12G21   30.44S
NANTUCKET      LGT RAIN  60  54  80 NE17G24   30.37F
PROVIDENCE     PTSUNNY   59  52  77 NE15      30.41S
HARTFORD       CLOUDY    54  47  77 N10       30.43R
ALBANY         CLOUDY    55  44  66 NE6       30.44S
NEW YORK CITY  CLOUDY    62  54  74 NE31G39   30.29S
$$

ANZ081-ANZ082-ANZ150-NHZ014-MEZ023>029-301300-
COASTAL MARINE OBSERVATIONS

STATION/POSITION TIME  TEMP    WIND        PRES    WAVE
                       AIR SEA DIR/SP/G            HT/PER
                 (UTC) (F)     (DEG/KT/KT) (MB)    (FT/S)
MOUNT DESERT ROC 1200   53      50/ 11/ 12 1033.8S
MATINICUS ROCK   1200   53      60/ 16/ 18 1033.1S
ISLE OF SHOALS   1200   56      70/ 21/ 22 1031.8R
JEFFREYS LEDGE   1138      61                N/A     7/ 7
CASHES LEDGE BUO 1150   55 58   80/ 17/ 19 1032.4F   5/ 6
GEORGES BANK BUO 1150   66 66              1027.9R   8/ 9
$$

.............KEY..............
   WCI - WIND CHILL
   TC  - TEMPERATURE IN CELSIUS
   VSB - VISIBILITY IN MILES
   HX  - HEAT INDEX
   FAIR- INDICATES FEW OR NO CLOUDS BELOW 12,000 FT, WITH NO
         SIGNIFICANT WEATHER AND/OR OBSTRUCTIONS TO VISIBILITY.






USA.gov is the U.S. government's official web portal to all federal, state and local government web resources and services.